Page, AZ

12:17 AM MDT on September 26, 2017 (GMT -0600)
Page Municipal

Weather History for KPGA - May, 2013

Change the Weather History Date:

Monday, May 20, 2013

  Actual Average Record
Temperature  
Mean Temperature 66 °F -  
Max Temperature 77 °F 79 °F 97 °F (2008)
Min Temperature 54 °F 54 °F 39 °F (1974)
Growing Degree Days 16 (Base 50)    
Moisture  
Dew Point 29 °F    
Average Humidity 26    
Maximum Humidity 42    
Minimum Humidity 7    
Precipitation  
Precipitation 0.00 in - - ()
Sea Level Pressure  
Sea Level Pressure 29.90 in    
Wind  
Wind Speed 7 mph (WNW)    
Max Wind Speed 13 mph    
Max Gust Speed 20 mph    
Visibility 10 miles    
Events      
Averages and records for this station are not official NWS values.
T = Trace of Precipitation, MM = Missing Value Source: NWS Daily Summary

Daily Weather History Graph

Daily Weather History Graph

Search for Another Location

Airport or City:

Trip Planner

Search our weather history database for the weather conditions in past years. The results will help you decide how hot, cold, wet, or windy it might be!

Date:

Astronomy

May. 20, 2013 Rise Set
Actual Time 5:13 AM MST 7:31 PM MST
Civil Twilight 4:44 AM MST 8:00 PM MST
Nautical Twilight 4:08 AM MST 8:36 PM MST
Astronomical Twilight 3:29 AM MST 9:16 PM MST
Moon 2:49 PM MST (5/20) 2:03 AM MST (5/20)
Length of Visible Light 15h 16m
Length of Day
14h 17m
Waxing Gibbous, 76% of the Moon is Illuminated
May 20
Waxing Gibbous
May 24
Full
May 31
Last Quarter
Jun 8
New
Jun 16
First Quarter

Hourly Weather History & Observations

Time (MST) Temp. Dew Point Humidity Pressure Visibility Wind Dir Wind Speed Gust Speed Precip Events Conditions
12:53 AM 57.2 °F 33.8 °F 41% 30.00 in 10.0 mi WNW 9.2 mph 16.1 mph N/A   Clear
1:53 AM 55.9 °F 30.9 °F 39% 29.86 in 10.0 mi Variable 5.8 mph - N/A   Clear
2:53 AM 55.9 °F 32.0 °F 40% 29.87 in 10.0 mi West 10.4 mph 17.3 mph N/A   Clear
3:53 AM 55.0 °F 32.0 °F 42% 29.88 in 10.0 mi West 5.8 mph - N/A   Clear
4:53 AM 54.0 °F 30.9 °F 41% 29.90 in 10.0 mi West 6.9 mph - N/A   Partly Cloudy
5:53 AM 54.0 °F 30.9 °F 41% 29.91 in 10.0 mi West 3.5 mph - N/A   Mostly Cloudy
6:53 AM 57.0 °F 30.9 °F 37% 29.93 in 10.0 mi WNW 5.8 mph - N/A   Clear
7:53 AM 59.0 °F 30.9 °F 35% 29.94 in 10.0 mi WNW 5.8 mph - N/A   Clear
8:53 AM 63.0 °F 30.0 °F 29% 29.94 in 10.0 mi North 3.5 mph - N/A   Clear
9:53 AM 64.9 °F 28.0 °F 25% 29.94 in 10.0 mi Calm Calm - N/A   Clear
10:53 AM 68.0 °F 27.0 °F 21% 29.93 in 10.0 mi North 9.2 mph - N/A   Clear
11:53 AM 70.0 °F 25.0 °F 18% 29.92 in 10.0 mi NE 6.9 mph - N/A   Clear
12:53 PM 70.0 °F 25.0 °F 18% 29.91 in 10.0 mi East 4.6 mph - N/A   Clear
1:53 PM 73.0 °F 25.0 °F 17% 29.89 in 10.0 mi Variable 4.6 mph - N/A   Clear
2:53 PM 75.0 °F 25.0 °F 16% 29.86 in 10.0 mi Variable 3.5 mph - N/A   Clear
3:53 PM 75.9 °F 24.1 °F 15% 29.84 in 10.0 mi ESE 6.9 mph - N/A   Clear
4:53 PM 75.9 °F 24.1 °F 15% 29.83 in 10.0 mi Variable 3.5 mph - N/A   Clear
5:53 PM 75.0 °F 24.1 °F 15% 29.83 in 10.0 mi Variable 5.8 mph - N/A   Clear
6:53 PM 73.4 °F 24.8 °F 16% 29.97 in 10.0 mi ESE 3.5 mph - N/A   Mostly Cloudy
7:53 PM 73.0 °F 25.0 °F 17% 29.84 in 10.0 mi NW 5.8 mph - N/A   Mostly Cloudy
8:53 PM 69.1 °F 32.0 °F 25% 29.88 in 10.0 mi WNW 12.7 mph 19.6 mph N/A   Clear
9:53 PM 66.9 °F 33.1 °F 28% 29.90 in 10.0 mi Variable 5.8 mph - N/A   Clear
10:53 PM 64.9 °F 33.1 °F 31% 29.90 in 10.0 mi West 6.9 mph - N/A   Clear
11:53 PM 64.0 °F 33.1 °F 31% 29.89 in 10.0 mi West 4.6 mph - N/A   Clear